Location: Budapest
(47.4979°N, 19.0402°E)
Time: 15:54:42
(UTC+02:00)

ISS - Pass Details

Date: 07 October 2017
Orbit: 401 x 408 km, 51.6° (Epoch: 22 October)

Event Time Altitude Azimuth Distance (km) Brightness Sun altitude
Rises 18:54:23 0° 283° (WNW) 2,324 2.0 -8.1°
Reaches altitude 10° 18:56:33 10° 292° (WNW) 1,466 0.3 -8.5°
Maximum altitude 18:59:39 38° 2° (N) 639 -2.8 -9.0°
Enters shadow 19:02:25 12° 71° (ENE) 1,334 -1.8 -9.5°
